Location: Pedholt
(56.0260°N, 10.2097°E)
Time: 19:00:37
(UTC+00:00)

Cosmos 2322 Rocket - Visible Passes

Search period start: 22 October 2020 00:00
Search period end: 01 November 2020 00:00
Orbit: 831 x 852 km, 71.0° (Epoch: 22 October)

Date Brightness Start Highest point End Pass type
(mag) Time Alt. Az. Time Alt. Az. Time Alt. Az.
22 Oct 4.3 01:27:21 19° N 01:27:21 19° N 01:31:11 10° NE visible
22 Oct 4.3 03:09:10 10° NNW 03:13:23 21° NNE 03:17:36 10° ENE visible
22 Oct 3.3 04:53:28 10° NNW 04:58:56 43° NE 05:04:20 10° ESE visible
22 Oct 4.9 23:30:55 13° NNE 23:30:55 13° NNE 23:31:35 10° NNE visible
23 Oct 4.4 01:12:43 19° N 01:12:43 19° N 01:16:07 10° NE visible
23 Oct 4.3 02:54:32 12° NNW 02:58:17 20° NNE 03:02:28 10° ENE visible
23 Oct 3.3 04:38:26 10° NNW 04:43:52 42° NE 04:49:15 10° ESE visible
23 Oct 5.0 23:16:18 11° NNE 23:16:18 11° NNE 23:16:32 10° NNE visible
24 Oct 4.5 00:58:07 18° N 00:58:07 18° N 01:01:02 10° NNE visible
24 Oct 4.3 02:39:56 13° NNW 02:43:12 20° NNE 02:47:21 10° ENE visible
24 Oct 3.4 04:23:24 10° NNW 04:28:49 41° NE 04:34:10 10° ESE visible
25 Oct 4.6 00:43:32 17° N 00:43:32 17° N 00:45:58 10° NNE visible
25 Oct 4.4 02:25:21 15° NNW 02:28:06 20° NNE 02:32:14 10° ENE visible
25 Oct 3.4 04:08:22 10° NNW 04:13:44 40° NE 04:19:04 10° ESE visible
26 Oct 4.7 00:28:58 16° NNE 00:28:58 16° NNE 00:30:54 10° NNE visible
26 Oct 4.3 02:10:47 16° NNW 02:13:00 20° NNE 02:17:06 10° ENE visible
26 Oct 3.5 03:53:19 10° NNW 03:58:40 39° NE 04:03:58 10° ESE visible
26 Oct 2.3 05:37:27 10° NW 05:43:06 64° WSW 05:48:40 10° SSE visible
27 Oct 4.8 00:14:26 15° NNE 00:14:26 15° NNE 00:15:50 10° NNE visible
27 Oct 4.3 01:56:15 17° N 01:57:55 20° NNE 02:01:59 10° ENE visible
27 Oct 3.5 03:38:17 10° NNW 03:43:36 38° NE 03:48:53 10° ESE visible
27 Oct 2.3 05:22:24 10° NW 05:28:04 66° WSW 05:33:39 10° SSE visible
27 Oct 5.0 23:59:57 13° NNE 23:59:57 13° NNE 00:00:46 10° NNE visible
28 Oct 4.3 01:41:46 18° N 01:42:49 19° NNE 01:46:52 10° ENE visible
28 Oct 3.5 03:23:36 12° NNW 03:28:32 37° NE 03:33:47 10° ESE visible
28 Oct 2.2 05:07:21 10° NW 05:13:01 69° WSW 05:18:38 10° SSE visible
28 Oct 5.1 23:45:31 11° NNE 23:45:31 11° NNE 23:45:42 10° NNE visible
29 Oct 4.4 01:27:21 19° N 01:27:43 19° NNE 01:31:45 10° ENE visible
29 Oct 3.6 03:09:11 15° NNW 03:13:28 36° NE 03:18:41 10° ESE visible
29 Oct 2.2 04:52:18 10° NW 04:57:59 71° WSW 05:03:37 10° SSE visible
30 Oct 4.5 01:12:59 19° NNE 01:12:59 19° NNE 01:16:37 10° NE visible
30 Oct 3.6 02:54:49 18° NNW 02:58:24 35° NE 03:03:34 10° ESE visible
30 Oct 2.1 04:37:16 10° NW 04:42:57 74° WSW 04:48:36 10° SSE visible
31 Oct 4.6 00:58:43 18° NNE 00:58:43 18° NNE 01:01:30 10° NE visible
31 Oct 3.6 02:40:33 22° NNW 02:43:19 34° NE 02:48:28 10° E visible
31 Oct 2.1 04:22:24 11° NW 04:27:55 77° WSW 04:33:34 10° SSE visible
